TimePST,TemperatureF,Dew PointF,Humidity,Sea Level PressureIn,VisibilityMPH,Wind Direction,Wind SpeedMPH,Gust SpeedMPH,PrecipitationIn,Events,Conditions,WindDirDegrees,DateUTC
12:53 AM,54.0,24.1,31,30.35,10.0,NNW,13.8,-,N/A,,Clear,330,2013-01-15 08:53:00
1:53 AM,57.0,24.1,28,30.36,10.0,WNW,11.5,-,N/A,,Clear,300,2013-01-15 09:53:00
2:53 AM,51.1,25.0,36,30.37,10.0,WNW,10.4,-,N/A,,Clear,300,2013-01-15 10:53:00
3:53 AM,50.0,28.0,43,30.36,10.0,NNW,8.1,-,N/A,,Clear,330,2013-01-15 11:53:00
4:53 AM,53.1,30.0,41,30.35,10.0,North,8.1,-,N/A,,Clear,350,2013-01-15 12:53:00
5:53 AM,45.9,30.4,55,30.36,7.0,NNW,6.9,-,N/A,,Clear,340,2013-01-15 13:53:00
6:53 AM,44.2,34.7,69,30.38,7.0,North,4.6,-,N/A,,Partly Cloudy,10,2013-01-15 14:53:00
7:53 AM,49.1,35.8,60,30.40,7.0,NE,8.1,-,N/A,,Scattered Clouds,40,2013-01-15 15:53:00
8:53 AM,52.5,33.6,49,30.42,7.0,NNE,9.2,-,N/A,,Partly Cloudy,20,2013-01-15 16:53:00
9:53 AM,51.6,35.8,55,30.43,7.0,NE,9.2,-,N/A,,Partly Cloudy,40,2013-01-15 17:53:00
10:53 AM,52.0,36.5,56,30.42,7.0,NE,9.2,-,N/A,,Partly Cloudy,50,2013-01-15 18:53:00
11:53 AM,52.3,40.6,64,30.38,7.0,NNE,8.1,-,N/A,,Partly Cloudy,30,2013-01-15 19:53:00
12:53 PM,53.6,33.6,47,30.35,7.0,North,9.2,-,N/A,,Partly Cloudy,360,2013-01-15 20:53:00
1:53 PM,52.5,31.5,45,30.35,7.0,NNW,10.4,-,N/A,,Partly Cloudy,330,2013-01-15 21:53:00
2:53 PM,52.2,34.0,50,30.35,7.0,NW,12.7,-,N/A,,Partly Cloudy,320,2013-01-15 22:53:00
3:53 PM,51.6,38.3,60,30.36,7.0,NW,13.8,-,N/A,,Partly Cloudy,310,2013-01-15 23:53:00
4:53 PM,64.0,37.0,37,30.35,10.0,NW,10.4,-,N/A,,Clear,310,2013-01-16 00:53:00
5:53 PM,57.9,37.0,46,30.37,10.0,West,11.5,-,N/A,,Clear,280,2013-01-16 01:53:00
6:53 PM,57.9,39.0,49,30.36,10.0,WNW,11.5,-,N/A,,Clear,300,2013-01-16 02:53:00
7:53 PM,57.0,39.0,51,30.36,10.0,WNW,13.8,-,N/A,,Clear,300,2013-01-16 03:53:00
8:53 PM,57.9,37.9,47,30.36,10.0,WNW,15.0,-,N/A,,Clear,300,2013-01-16 04:53:00
9:53 PM,57.0,39.0,51,30.35,10.0,WNW,12.7,-,N/A,,Clear,290,2013-01-16 05:53:00
10:53 PM,57.0,36.0,45,30.35,10.0,WNW,12.7,-,N/A,,Clear,290,2013-01-16 06:53:00
11:53 PM,57.9,37.0,46,30.35,10.0,WNW,12.7,-,N/A,,Clear,290,2013-01-16 07:53:00